Time,TemperatureF,DewpointF,PressureIn,WindDirection,WindDirectionDegrees,WindSpeedMPH,WindSpeedGustMPH,Humidity,HourlyPrecipIn,Conditions,Clouds,dailyrainin,SoftwareType,DateUTC
2013-06-30 00:00:00,80.7,59.8,29.66,ENE,78,0.0,0.0,49,0.00,,---,0.00,VWS V14.01,2013-06-30 07:00:00,
2013-06-30 00:05:00,80.6,60.3,29.66,East,79,0.0,0.0,50,0.00,,---,0.00,VWS V14.01,2013-06-30 07:05:00,
2013-06-30 00:10:00,80.4,60.6,29.66,East,79,0.0,0.0,51,0.00,,---,0.00,VWS V14.01,2013-06-30 07:10:00,
2013-06-30 00:15:00,80.2,59.9,29.66,East,79,0.0,0.0,50,0.00,,---,0.00,VWS V14.01,2013-06-30 07:15:00,
2013-06-30 00:20:00,80.0,60.8,29.66,East,79,0.0,0.0,52,0.00,,---,0.00,VWS V14.01,2013-06-30 07:20:00,
2013-06-30 00:25:00,79.8,60.6,29.66,NW,306,0.0,0.0,52,0.00,,---,0.00,VWS V14.01,2013-06-30 07:25:00,
2013-06-30 00:30:00,79.6,61.0,29.66,ENE,65,0.0,0.0,53,0.00,,---,0.00,VWS V14.01,2013-06-30 07:30:00,
2013-06-30 00:35:00,79.4,60.3,29.66,East,89,0.0,0.0,52,0.00,,---,0.00,VWS V14.01,2013-06-30 07:35:00,
2013-06-30 00:40:00,79.3,60.2,29.66,ESE,109,0.0,0.0,52,0.00,,---,0.00,VWS V14.01,2013-06-30 07:40:00,
2013-06-30 00:45:00,79.1,60.5,29.66,East,90,1.0,0.0,53,0.00,,---,0.00,VWS V14.01,2013-06-30 07:45:00,
2013-06-30 00:50:00,78.9,60.3,29.66,ESE,103,0.0,0.0,53,0.00,,---,0.00,VWS V14.01,2013-06-30 07:50:00,
2013-06-30 00:55:00,78.8,60.2,29.66,East,90,0.0,0.0,53,0.00,,---,0.00,VWS V14.01,2013-06-30 07:55:00,
2013-06-30 01:00:00,78.7,60.2,29.66,East,99,0.0,0.0,53,0.00,,---,0.00,VWS V14.01,2013-06-30 08:00:00,
2013-06-30 01:05:00,78.6,60.6,29.66,East,86,1.0,0.0,54,0.00,,---,0.00,VWS V14.01,2013-06-30 08:05:00,
2013-06-30 01:10:00,78.5,60.5,29.66,East,96,0.0,0.0,54,0.00,,---,0.00,VWS V14.01,2013-06-30 08:10:00,
2013-06-30 01:15:00,78.5,60.5,29.66,East,98,0.0,0.0,54,0.00,,---,0.00,VWS V14.01,2013-06-30 08:15:00,
2013-06-30 01:20:00,78.4,60.4,29.66,ESE,102,1.0,0.0,54,0.00,,---,0.00,VWS V14.01,2013-06-30 08:20:00,
2013-06-30 01:25:00,78.3,60.3,29.65,East,86,0.0,0.0,54,0.00,,---,0.00,VWS V14.01,2013-06-30 08:25:00,
2013-06-30 01:31:00,78.2,60.2,29.65,ESE,102,2.0,0.0,54,0.00,,---,0.00,VWS V14.01,2013-06-30 08:31:00,
2013-06-30 01:36:00,78.2,60.7,29.65,East,98,0.0,0.0,55,0.00,,---,0.00,VWS V14.01,2013-06-30 08:36:00,
2013-06-30 01:41:00,78.1,60.6,29.65,East,94,1.0,0.0,55,0.00,,---,0.00,VWS V14.01,2013-06-30 08:41:00,
2013-06-30 01:46:00,78.1,61.1,29.65,East,93,2.0,0.0,56,0.00,,---,0.00,VWS V14.01,2013-06-30 08:46:00,
2013-06-30 01:51:00,78.0,61.0,29.65,East,101,5.0,0.0,56,0.00,,---,0.00,VWS V14.01,2013-06-30 08:51:00,
2013-06-30 01:56:00,77.9,61.0,29.65,ESE,105,1.0,0.0,56,0.00,,---,0.00,VWS V14.01,2013-06-30 08:56:00,
2013-06-30 02:01:00,77.8,60.9,29.65,SE,127,1.0,0.0,56,0.00,,---,0.00,VWS V14.01,2013-06-30 09:01:00,
2013-06-30 02:06:00,77.7,60.8,29.65,ESE,102,0.0,0.0,56,0.00,,---,0.00,VWS V14.01,2013-06-30 09:06:00,
2013-06-30 02:11:00,77.6,60.7,29.65,East,85,0.0,0.0,56,0.00,,---,0.00,VWS V14.01,2013-06-30 09:11:00,
2013-06-30 02:16:00,77.5,60.6,29.65,ENE,78,0.0,0.0,56,0.00,,---,0.00,VWS V14.01,2013-06-30 09:16:00,
2013-06-30 02:21:00,77.5,60.6,29.65,ENE,77,0.0,0.0,56,0.00,,---,0.00,VWS V14.01,2013-06-30 09:21:00,
2013-06-30 02:26:00,77.5,60.6,29.65,East,85,3.0,0.0,56,0.00,,---,0.00,VWS V14.01,2013-06-30 09:26:00,
2013-06-30 02:31:00,77.5,60.6,29.65,East,86,0.0,0.0,56,0.00,,---,0.00,VWS V14.01,2013-06-30 09:31:00,
2013-06-30 02:36:00,77.5,61.1,29.65,East,92,1.0,0.0,57,0.00,,---,0.00,VWS V14.01,2013-06-30 09:36:00,
2013-06-30 02:42:00,77.4,61.0,29.64,East,95,0.0,0.0,57,0.00,,---,0.00,VWS V14.01,2013-06-30 09:42:00,
2013-06-30 02:47:00,77.3,60.9,29.64,ESE,108,1.0,0.0,57,0.00,,---,0.00,VWS V14.01,2013-06-30 09:47:00,
2013-06-30 02:52:00,77.2,60.8,29.64,ESE,104,1.0,0.0,57,0.00,,---,0.00,VWS V14.01,2013-06-30 09:52:00,
2013-06-30 02:57:00,77.0,60.6,29.64,ENE,71,0.0,0.0,57,0.00,,---,0.00,VWS V14.01,2013-06-30 09:57:00,
2013-06-30 03:02:00,76.9,60.5,29.64,East,79,1.0,0.0,57,0.00,,---,0.00,VWS V14.01,2013-06-30 10:02:00,
2013-06-30 03:07:00,76.8,60.9,29.64,ESE,117,0.0,0.0,58,0.00,,---,0.00,VWS V14.01,2013-06-30 10:07:00,
2013-06-30 03:12:00,76.7,60.8,29.64,ESE,113,4.0,0.0,58,0.00,,---,0.00,VWS V14.01,2013-06-30 10:12:00,
2013-06-30 03:17:00,76.5,61.1,29.64,ENE,71,1.0,0.0,59,0.00,,---,0.00,VWS V14.01,2013-06-30 10:17:00,
2013-06-30 03:22:00,76.4,61.0,29.64,ESE,103,4.0,0.0,59,0.00,,---,0.00,VWS V14.01,2013-06-30 10:22:00,
2013-06-30 03:27:00,76.3,60.9,29.64,ESE,105,2.0,0.0,59,0.00,,---,0.00,VWS V14.01,2013-06-30 10:27:00,
2013-06-30 03:32:00,76.2,60.8,29.64,ESE,103,1.0,0.0,59,0.00,,---,0.00,VWS V14.01,2013-06-30 10:32:00,
2013-06-30 03:37:00,76.2,60.8,29.64,ESE,106,2.0,0.0,59,0.00,,---,0.00,VWS V14.01,2013-06-30 10:37:00,
2013-06-30 03:42:00,76.1,60.8,29.64,East,86,2.0,0.0,59,0.00,,---,0.00,VWS V14.01,2013-06-30 10:42:00,
2013-06-30 03:47:00,76.0,60.7,29.64,East,98,2.0,0.0,59,0.00,,---,0.00,VWS V14.01,2013-06-30 10:47:00,
2013-06-30 03:52:00,75.9,61.0,29.64,East,84,0.0,0.0,60,0.00,,---,0.00,VWS V14.01,2013-06-30 10:52:00,
2013-06-30 03:57:00,75.8,60.9,29.64,East,91,0.0,0.0,60,0.00,,---,0.00,VWS V14.01,2013-06-30 10:57:00,
2013-06-30 04:03:00,75.7,60.8,29.64,East,94,0.0,0.0,60,0.00,,---,0.00,VWS V14.01,2013-06-30 11:03:00,
2013-06-30 04:08:00,75.6,60.8,29.64,ESE,108,0.0,0.0,60,0.00,,---,0.00,VWS V14.01,2013-06-30 11:08:00,
2013-06-30 04:13:00,75.5,60.7,29.64,ESE,108,1.0,0.0,60,0.00,,---,0.00,VWS V14.01,2013-06-30 11:13:00,
2013-06-30 04:18:00,75.5,60.7,29.64,East,91,0.0,0.0,60,0.00,,---,0.00,VWS V14.01,2013-06-30 11:18:00,
2013-06-30 04:23:00,75.5,60.7,29.64,East,91,0.0,0.0,60,0.00,,---,0.00,VWS V14.01,2013-06-30 11:23:00,
2013-06-30 04:28:00,75.4,60.6,29.64,East,94,0.0,0.0,60,0.00,,---,0.00,VWS V14.01,2013-06-30 11:28:00,
2013-06-30 04:33:00,75.3,60.5,29.64,East,84,0.0,0.0,60,0.00,,---,0.00,VWS V14.01,2013-06-30 11:33:00,
2013-06-30 04:38:00,75.2,60.8,29.64,ESE,114,0.0,0.0,61,0.00,,---,0.00,VWS V14.01,2013-06-30 11:38:00,
2013-06-30 04:43:00,75.1,60.8,29.64,SE,125,0.0,0.0,61,0.00,,---,0.00,VWS V14.01,2013-06-30 11:43:00,
2013-06-30 04:48:00,75.1,60.8,29.64,East,90,1.0,0.0,61,0.00,,---,0.00,VWS V14.01,2013-06-30 11:48:00,
2013-06-30 04:53:00,75.0,60.7,29.63,East,92,0.0,0.0,61,0.00,,---,0.00,VWS V14.01,2013-06-30 11:53:00,
2013-06-30 04:58:00,75.0,60.7,29.64,ESE,109,0.0,0.0,61,0.00,,---,0.00,VWS V14.01,2013-06-30 11:58:00,
2013-06-30 05:03:00,75.0,60.7,29.64,East,94,0.0,0.0,61,0.00,,---,0.00,VWS V14.01,2013-06-30 12:03:00,
2013-06-30 05:08:00,74.9,61.5,29.64,East,91,0.0,0.0,63,0.00,,---,0.00,VWS V14.01,2013-06-30 12:08:00,
2013-06-30 05:14:00,74.8,61.4,29.64,East,95,0.0,0.0,63,0.00,,---,0.00,VWS V14.01,2013-06-30 12:14:00,
2013-06-30 05:19:00,74.7,61.3,29.64,North,355,0.0,0.0,63,0.00,,---,0.00,VWS V14.01,2013-06-30 12:19:00,
2013-06-30 05:24:00,74.5,61.1,29.64,NW,322,0.0,0.0,63,0.00,,---,0.00,VWS V14.01,2013-06-30 12:24:00,
2013-06-30 05:29:00,74.3,61.3,29.64,NW,324,0.0,0.0,64,0.00,,---,0.00,VWS V14.01,2013-06-30 12:29:00,
2013-06-30 05:34:00,74.1,61.2,29.64,NNW,347,0.0,0.0,64,0.00,,---,0.00,VWS V14.01,2013-06-30 12:34:00,
2013-06-30 05:39:00,74.0,61.5,29.65,NNW,347,0.0,0.0,65,0.00,,---,0.00,VWS V14.01,2013-06-30 12:39:00,
2013-06-30 05:44:00,73.7,61.2,29.65,NE,55,0.0,0.0,65,0.00,,---,0.00,VWS V14.01,2013-06-30 12:44:00,
2013-06-30 05:49:00,73.4,60.9,29.64,NNE,28,0.0,0.0,65,0.00,,---,0.00,VWS V14.01,2013-06-30 12:49:00,
2013-06-30 05:54:00,73.3,60.8,29.65,NNE,28,0.0,0.0,65,0.00,,---,0.00,VWS V14.01,2013-06-30 12:54:00,
2013-06-30 05:59:00,73.1,60.7,29.65,East,98,0.0,0.0,65,0.00,,---,0.00,VWS V14.01,2013-06-30 12:59:00,
2013-06-30 06:04:00,73.0,61.0,29.65,East,98,0.0,0.0,66,0.00,,---,0.00,VWS V14.01,2013-06-30 13:04:00,
2013-06-30 06:09:00,72.9,60.9,29.65,East,101,0.0,0.0,66,0.00,,---,0.00,VWS V14.01,2013-06-30 13:09:00,
2013-06-30 06:14:00,72.8,60.8,29.65,East,101,0.0,0.0,66,0.00,,---,0.00,VWS V14.01,2013-06-30 13:14:00,
2013-06-30 06:20:00,72.8,61.2,29.65,ESE,107,0.0,0.0,67,0.00,,---,0.00,VWS V14.01,2013-06-30 13:20:00,
2013-06-30 06:25:00,72.8,61.2,29.65,East,83,1.0,0.0,67,0.00,,---,0.00,VWS V14.01,2013-06-30 13:25:00,
2013-06-30 06:30:00,72.8,60.8,29.65,ESE,109,0.0,0.0,66,0.00,,---,0.00,VWS V14.01,2013-06-30 13:30:00,
2013-06-30 06:35:00,72.9,60.9,29.66,ESE,103,0.0,0.0,66,0.00,,---,0.00,VWS V14.01,2013-06-30 13:35:00,
2013-06-30 06:40:00,73.0,61.4,29.66,NE,34,1.0,0.0,67,0.00,,---,0.00,VWS V14.01,2013-06-30 13:40:00,
2013-06-30 06:41:00,73.0,61.0,29.66,East,97,2.0,0.0,66,0.00,,---,0.00,VWS V14.01,2013-06-30 13:41:00,
2013-06-30 06:46:00,73.1,61.1,29.66,NNE,28,0.0,0.0,66,0.00,,---,0.00,VWS V14.01,2013-06-30 13:46:00,
2013-06-30 06:52:00,73.1,61.1,29.66,North,351,0.0,0.0,66,0.00,,---,0.00,VWS V14.01,2013-06-30 13:52:00,
2013-06-30 06:57:00,73.2,61.6,29.66,North,351,0.0,0.0,67,0.00,,---,0.00,VWS V14.01,2013-06-30 13:57:00,
2013-06-30 07:02:00,73.3,61.3,29.66,North,355,0.0,0.0,66,0.00,,---,0.00,VWS V14.01,2013-06-30 14:02:00,
2013-06-30 07:07:00,73.4,61.4,29.66,North,355,0.0,0.0,66,0.00,,---,0.00,VWS V14.01,2013-06-30 14:07:00,
2013-06-30 07:12:00,73.4,61.4,29.66,East,95,0.0,0.0,66,0.00,,---,0.00,VWS V14.01,2013-06-30 14:12:00,
2013-06-30 07:17:00,73.4,61.8,29.66,East,96,0.0,0.0,67,0.00,,---,0.00,VWS V14.01,2013-06-30 14:17:00,
2013-06-30 07:22:00,73.5,61.9,29.66,East,96,0.0,0.0,67,0.00,,---,0.00,VWS V14.01,2013-06-30 14:22:00,
2013-06-30 07:27:00,73.7,62.1,29.66,East,95,0.0,0.0,67,0.00,,---,0.00,VWS V14.01,2013-06-30 14:27:00,
2013-06-30 07:32:00,73.8,62.2,29.66,East,95,0.0,0.0,67,0.00,,---,0.00,VWS V14.01,2013-06-30 14:32:00,
2013-06-30 07:37:00,73.9,62.3,29.67,East,96,0.0,0.0,67,0.00,,---,0.00,VWS V14.01,2013-06-30 14:37:00,
2013-06-30 07:42:00,74.1,62.5,29.67,East,96,0.0,0.0,67,0.00,,---,0.00,VWS V14.01,2013-06-30 14:42:00,
2013-06-30 07:47:00,74.3,62.2,29.67,East,96,0.0,0.0,66,0.00,,---,0.00,VWS V14.01,2013-06-30 14:47:00,
2013-06-30 07:52:00,74.6,62.1,29.67,East,95,0.0,0.0,65,0.00,,---,0.00,VWS V14.01,2013-06-30 14:52:00,
2013-06-30 07:57:00,74.9,62.3,29.67,East,96,0.0,0.0,65,0.00,,---,0.00,VWS V14.01,2013-06-30 14:57:00,
2013-06-30 08:02:00,75.2,62.2,29.67,East,96,0.0,0.0,64,0.00,,---,0.00,VWS V14.01,2013-06-30 15:02:00,
2013-06-30 08:07:00,75.5,62.0,29.67,East,95,0.0,0.0,63,0.00,,---,0.00,VWS V14.01,2013-06-30 15:07:00,
2013-06-30 08:13:00,75.9,62.9,29.67,East,96,0.0,0.0,64,0.00,,---,0.00,VWS V14.01,2013-06-30 15:13:00,
2013-06-30 08:18:00,76.3,63.7,29.67,East,95,0.0,0.0,65,0.00,,---,0.00,VWS V14.01,2013-06-30 15:18:00,
2013-06-30 08:23:00,76.6,64.0,29.67,East,95,0.0,0.0,65,0.00,,---,0.00,VWS V14.01,2013-06-30 15:23:00,
2013-06-30 08:28:00,77.1,63.1,29.67,East,96,0.0,0.0,62,0.00,,---,0.00,VWS V14.01,2013-06-30 15:28:00,
2013-06-30 08:33:00,77.6,63.1,29.68,East,95,0.0,0.0,61,0.00,,---,0.00,VWS V14.01,2013-06-30 15:33:00,
2013-06-30 08:38:00,78.3,64.2,29.67,East,95,0.0,0.0,62,0.00,,---,0.00,VWS V14.01,2013-06-30 15:38:00,
2013-06-30 08:43:00,79.1,64.0,29.67,East,95,0.0,0.0,60,0.00,,---,0.00,VWS V14.01,2013-06-30 15:43:00,
2013-06-30 08:48:00,79.7,63.6,29.67,East,96,0.0,0.0,58,0.00,,---,0.00,VWS V14.01,2013-06-30 15:48:00,
2013-06-30 08:53:00,80.3,63.7,29.67,East,95,0.0,0.0,57,0.00,,---,0.00,VWS V14.01,2013-06-30 15:53:00,
2013-06-30 08:58:00,80.8,64.2,29.67,East,96,0.0,0.0,57,0.00,,---,0.00,VWS V14.01,2013-06-30 15:58:00,
2013-06-30 09:03:00,81.4,63.7,29.67,East,95,0.0,0.0,55,0.00,,---,0.00,VWS V14.01,2013-06-30 16:03:00,
2013-06-30 09:08:00,82.1,64.9,29.67,North,5,0.0,0.0,56,0.00,,---,0.00,VWS V14.01,2013-06-30 16:08:00,
2013-06-30 09:13:00,82.8,64.5,29.67,NE,42,0.0,0.0,54,0.00,,---,0.00,VWS V14.01,2013-06-30 16:13:00,
2013-06-30 09:19:00,83.5,64.6,29.67,NNE,30,0.0,0.0,53,0.00,,---,0.00,VWS V14.01,2013-06-30 16:19:00,
2013-06-30 09:24:00,84.1,64.6,29.67,NE,43,0.0,0.0,52,0.00,,---,0.00,VWS V14.01,2013-06-30 16:24:00,
2013-06-30 09:29:00,84.5,64.4,29.67,NE,43,0.0,0.0,51,0.00,,---,0.00,VWS V14.01,2013-06-30 16:29:00,
2013-06-30 09:34:00,84.9,64.8,29.67,NNE,15,1.0,0.0,51,0.00,,---,0.00,VWS V14.01,2013-06-30 16:34:00,
2013-06-30 09:39:00,85.3,65.1,29.67,NE,34,0.0,0.0,51,0.00,,---,0.00,VWS V14.01,2013-06-30 16:39:00,
2013-06-30 09:44:00,85.6,64.8,29.67,North,10,3.0,0.0,50,0.00,,---,0.00,VWS V14.01,2013-06-30 16:44:00,
2013-06-30 09:49:00,86.1,64.1,29.67,NE,37,1.0,0.0,48,0.00,,---,0.00,VWS V14.01,2013-06-30 16:49:00,
2013-06-30 09:54:00,86.4,64.4,29.67,NE,36,0.0,0.0,48,0.00,,---,0.00,VWS V14.01,2013-06-30 16:54:00,
2013-06-30 09:59:00,86.7,64.1,29.67,North,5,1.0,0.0,47,0.00,,---,0.00,VWS V14.01,2013-06-30 16:59:00,
2013-06-30 10:04:00,87.0,64.3,29.66,West,276,0.0,0.0,47,0.00,,---,0.00,VWS V14.01,2013-06-30 17:04:00,
2013-06-30 10:09:00,87.4,64.1,29.66,NNE,21,0.0,0.0,46,0.00,,---,0.00,VWS V14.01,2013-06-30 17:09:00,
2013-06-30 10:15:00,87.9,64.6,29.66,NNW,340,0.0,0.0,46,0.00,,---,0.00,VWS V14.01,2013-06-30 17:15:00,
2013-06-30 10:20:00,88.6,65.2,29.67,ENE,65,0.0,0.0,46,0.00,,---,0.00,VWS V14.01,2013-06-30 17:20:00,
2013-06-30 10:25:00,89.2,63.8,29.67,West,273,2.0,0.0,43,0.00,,---,0.00,VWS V14.01,2013-06-30 17:25:00,
2013-06-30 10:30:00,89.5,64.7,29.67,WSW,257,1.0,0.0,44,0.00,,---,0.00,VWS V14.01,2013-06-30 17:30:00,
2013-06-30 10:35:00,90.2,63.3,29.67,West,271,1.0,0.0,41,0.00,,---,0.00,VWS V14.01,2013-06-30 17:35:00,
2013-06-30 10:40:00,90.7,65.2,29.67,NNW,344,0.0,0.0,43,0.00,,---,0.00,VWS V14.01,2013-06-30 17:40:00,
2013-06-30 10:45:00,91.3,65.0,29.66,NE,36,2.0,0.0,42,0.00,,---,0.00,VWS V14.01,2013-06-30 17:45:00,
2013-06-30 10:50:00,91.8,62.6,29.66,WNW,286,4.0,0.0,38,0.00,,---,0.00,VWS V14.01,2013-06-30 17:50:00,
2013-06-30 10:55:00,92.2,61.4,29.66,NNE,15,0.0,0.0,36,0.00,,---,0.00,VWS V14.01,2013-06-30 17:55:00,
2013-06-30 11:00:00,92.8,61.2,29.66,NW,320,0.0,0.0,35,0.00,,---,0.00,VWS V14.01,2013-06-30 18:00:00,
2013-06-30 11:05:00,93.3,63.2,29.66,NE,36,1.0,0.0,37,0.00,,---,0.00,VWS V14.01,2013-06-30 18:05:00,
2013-06-30 11:11:00,93.6,62.7,29.66,ENE,73,1.0,0.0,36,0.00,,---,0.00,VWS V14.01,2013-06-30 18:11:00,
2013-06-30 11:16:00,94.2,63.2,29.66,North,350,0.0,0.0,36,0.00,,---,0.00,VWS V14.01,2013-06-30 18:16:00,
2013-06-30 11:21:00,95.0,65.4,29.66,North,360,0.0,0.0,38,0.00,,---,0.00,VWS V14.01,2013-06-30 18:21:00,
2013-06-30 11:26:00,95.7,62.9,29.66,North,355,0.0,0.0,34,0.00,,---,0.00,VWS V14.01,2013-06-30 18:26:00,
2013-06-30 11:31:00,96.2,64.9,29.66,NE,40,1.0,0.0,36,0.00,,---,0.00,VWS V14.01,2013-06-30 18:31:00,
2013-06-30 11:36:00,96.6,62.8,29.66,East,92,0.0,0.0,33,0.00,,---,0.00,VWS V14.01,2013-06-30 18:36:00,
2013-06-30 11:41:00,96.4,64.3,29.66,West,269,2.0,0.0,35,0.00,,---,0.00,VWS V14.01,2013-06-30 18:41:00,
2013-06-30 11:46:00,96.0,64.0,29.66,West,268,0.0,0.0,35,0.00,,---,0.00,VWS V14.01,2013-06-30 18:46:00,
2013-06-30 11:51:00,96.5,64.4,29.66,NE,39,0.0,0.0,35,0.00,,---,0.00,VWS V14.01,2013-06-30 18:51:00,
2013-06-30 11:56:00,96.8,63.0,29.66,ESE,104,0.0,0.0,33,0.00,,---,0.00,VWS V14.01,2013-06-30 18:56:00,
2013-06-30 12:01:00,97.4,66.8,29.66,East,86,0.0,0.0,37,0.00,,---,0.00,VWS V14.01,2013-06-30 19:01:00,
2013-06-30 12:06:00,98.2,65.1,29.66,West,276,0.0,0.0,34,0.00,,---,0.00,VWS V14.01,2013-06-30 19:06:00,
2013-06-30 12:11:00,98.4,63.5,29.66,East,94,1.0,0.0,32,0.00,,---,0.00,VWS V14.01,2013-06-30 19:11:00,
2013-06-30 12:17:00,98.5,63.6,29.66,ESE,102,4.0,0.0,32,0.00,,---,0.00,VWS V14.01,2013-06-30 19:17:00,
2013-06-30 12:22:00,98.5,64.4,29.66,NE,43,0.0,0.0,33,0.00,,---,0.00,VWS V14.01,2013-06-30 19:22:00,
2013-06-30 12:27:00,99.1,63.2,29.66,SSW,198,0.0,0.0,31,0.00,,---,0.00,VWS V14.01,2013-06-30 19:27:00,
2013-06-30 12:32:00,99.8,62.9,29.66,ENE,63,0.0,0.0,30,0.00,,---,0.00,VWS V14.01,2013-06-30 19:32:00,
2013-06-30 12:37:00,100.2,63.2,29.65,East,82,1.0,0.0,30,0.00,,---,0.00,VWS V14.01,2013-06-30 19:37:00,
2013-06-30 12:42:00,100.3,66.9,29.65,WNW,282,1.0,0.0,34,0.00,,---,0.00,VWS V14.01,2013-06-30 19:42:00,
2013-06-30 12:47:00,100.5,64.4,29.65,South,183,1.0,0.0,31,0.00,,---,0.00,VWS V14.01,2013-06-30 19:47:00,
2013-06-30 12:52:00,100.6,63.5,29.65,ESE,109,0.0,0.0,30,0.00,,---,0.00,VWS V14.01,2013-06-30 19:52:00,
2013-06-30 12:57:00,101.1,64.0,29.65,NNE,26,0.0,0.0,30,0.00,,---,0.00,VWS V14.01,2013-06-30 19:57:00,
2013-06-30 13:02:00,101.0,64.8,29.65,East,83,0.0,0.0,31,0.00,,---,0.00,VWS V14.01,2013-06-30 20:02:00,
2013-06-30 13:07:00,101.4,62.3,29.65,East,95,2.0,0.0,28,0.00,,---,0.00,VWS V14.01,2013-06-30 20:07:00,
2013-06-30 13:13:00,101.6,65.3,29.65,North,350,0.0,0.0,31,0.00,,---,0.00,VWS V14.01,2013-06-30 20:13:00,
2013-06-30 13:18:00,101.7,62.5,29.65,East,99,1.0,0.0,28,0.00,,---,0.00,VWS V14.01,2013-06-30 20:18:00,
2013-06-30 13:23:00,101.4,62.3,29.65,ESE,107,4.0,0.0,28,0.00,,---,0.00,VWS V14.01,2013-06-30 20:23:00,
2013-06-30 13:28:00,101.4,64.2,29.64,NE,55,0.0,0.0,30,0.00,,---,0.00,VWS V14.01,2013-06-30 20:28:00,
2013-06-30 13:33:00,101.9,61.7,29.64,West,261,2.0,0.0,27,0.00,,---,0.00,VWS V14.01,2013-06-30 20:33:00,
2013-06-30 13:38:00,102.1,62.9,29.64,ENE,63,1.0,0.0,28,0.00,,---,0.00,VWS V14.01,2013-06-30 20:38:00,
2013-06-30 13:43:00,102.6,63.3,29.64,NNE,15,1.0,0.0,28,0.00,,---,0.00,VWS V14.01,2013-06-30 20:43:00,
2013-06-30 13:48:00,103.0,63.6,29.64,NW,314,2.0,0.0,28,0.00,,---,0.00,VWS V14.01,2013-06-30 20:48:00,
2013-06-30 13:53:00,103.8,64.3,29.64,NNE,21,0.0,0.0,28,0.00,,---,0.00,VWS V14.01,2013-06-30 20:53:00,
2013-06-30 13:58:00,104.3,61.5,29.64,East,93,1.0,0.0,25,0.00,,---,0.00,VWS V14.01,2013-06-30 20:58:00,
2013-06-30 14:03:00,104.4,64.8,29.64,NNE,32,2.0,0.0,28,0.00,,---,0.00,VWS V14.01,2013-06-30 21:03:00,
2013-06-30 14:08:00,104.6,62.9,29.64,WNW,302,0.0,0.0,26,0.00,,---,0.00,VWS V14.01,2013-06-30 21:08:00,
2013-06-30 14:14:00,104.8,60.8,29.63,NE,50,0.0,0.0,24,0.00,,---,0.00,VWS V14.01,2013-06-30 21:14:00,
2013-06-30 14:19:00,104.5,60.5,29.63,WSW,243,0.0,0.0,24,0.00,,---,0.00,VWS V14.01,2013-06-30 21:19:00,
2013-06-30 14:24:00,104.3,61.5,29.63,NE,48,1.0,0.0,25,0.00,,---,0.00,VWS V14.01,2013-06-30 21:24:00,
2013-06-30 14:29:00,104.5,62.8,29.63,NNE,19,1.0,0.0,26,0.00,,---,0.00,VWS V14.01,2013-06-30 21:29:00,
2013-06-30 14:34:00,105.1,61.0,29.63,East,80,0.0,0.0,24,0.00,,---,0.00,VWS V14.01,2013-06-30 21:34:00,
2013-06-30 14:39:00,105.2,62.3,29.63,NNW,339,0.0,0.0,25,0.00,,---,0.00,VWS V14.01,2013-06-30 21:39:00,
2013-06-30 14:44:00,105.5,61.3,29.63,ENE,70,0.0,0.0,24,0.00,,---,0.00,VWS V14.01,2013-06-30 21:44:00,
2013-06-30 14:49:00,105.6,64.8,29.62,NE,54,0.0,0.0,27,0.00,,---,0.00,VWS V14.01,2013-06-30 21:49:00,
2013-06-30 14:54:00,106.0,61.8,29.62,ENE,59,1.0,0.0,24,0.00,,---,0.00,VWS V14.01,2013-06-30 21:54:00,
2013-06-30 14:59:00,106.2,60.7,29.62,East,82,2.0,0.0,23,0.00,,---,0.00,VWS V14.01,2013-06-30 21:59:00,
2013-06-30 15:04:00,106.2,60.7,29.62,NNW,342,0.0,0.0,23,0.00,,---,0.00,VWS V14.01,2013-06-30 22:04:00,
2013-06-30 15:09:00,106.2,59.5,29.62,North,355,0.0,0.0,22,0.00,,---,0.00,VWS V14.01,2013-06-30 22:09:00,
2013-06-30 15:15:00,106.4,59.7,29.62,NE,40,0.0,0.0,22,0.00,,---,0.00,VWS V14.01,2013-06-30 22:15:00,
2013-06-30 15:20:00,106.3,59.6,29.62,NE,35,1.0,0.0,22,0.00,,---,0.00,VWS V14.01,2013-06-30 22:20:00,
2013-06-30 15:25:00,106.1,58.1,29.62,NE,53,1.0,0.0,21,0.00,,---,0.00,VWS V14.01,2013-06-30 22:25:00,
2013-06-30 15:30:00,106.0,58.0,29.62,East,90,0.0,0.0,21,0.00,,---,0.00,VWS V14.01,2013-06-30 22:30:00,
2013-06-30 15:35:00,106.1,55.3,29.62,ENE,75,0.0,0.0,19,0.00,,---,0.00,VWS V14.01,2013-06-30 22:35:00,
2013-06-30 15:40:00,105.7,57.8,29.62,NNW,333,1.0,0.0,21,0.00,,---,0.00,VWS V14.01,2013-06-30 22:40:00,
2013-06-30 15:45:00,105.7,59.1,29.62,NE,40,3.0,0.0,22,0.00,,---,0.00,VWS V14.01,2013-06-30 22:45:00,
2013-06-30 15:50:00,105.9,56.6,29.61,North,351,1.0,0.0,20,0.00,,---,0.00,VWS V14.01,2013-06-30 22:50:00,
2013-06-30 15:55:00,105.9,56.6,29.61,North,360,1.0,0.0,20,0.00,,---,0.00,VWS V14.01,2013-06-30 22:55:00,
2013-06-30 16:00:00,105.9,55.2,29.61,East,100,0.0,0.0,19,0.00,,---,0.00,VWS V14.01,2013-06-30 23:00:00,
2013-06-30 16:05:00,105.8,57.9,29.61,WNW,284,0.0,0.0,21,0.00,,---,0.00,VWS V14.01,2013-06-30 23:05:00,
2013-06-30 16:10:00,105.7,55.0,29.61,NE,53,1.0,0.0,19,0.00,,---,0.00,VWS V14.01,2013-06-30 23:10:00,
2013-06-30 16:15:00,105.4,54.8,29.61,NE,47,1.0,0.0,19,0.00,,---,0.00,VWS V14.01,2013-06-30 23:15:00,
2013-06-30 16:20:00,105.3,51.7,29.60,NE,53,2.0,0.0,17,0.00,,---,0.00,VWS V14.01,2013-06-30 23:20:00,
2013-06-30 16:25:00,105.2,51.6,29.60,NNE,29,1.0,0.0,17,0.00,,---,0.00,VWS V14.01,2013-06-30 23:25:00,
2013-06-30 16:30:00,105.4,54.8,29.60,NNE,26,1.0,0.0,19,0.00,,---,0.00,VWS V14.01,2013-06-30 23:30:00,
2013-06-30 16:36:00,105.6,56.3,29.60,South,172,0.0,0.0,20,0.00,,---,0.00,VWS V14.01,2013-06-30 23:36:00,
2013-06-30 16:41:00,105.6,59.0,29.60,West,271,1.0,0.0,22,0.00,,---,0.00,VWS V14.01,2013-06-30 23:41:00,
2013-06-30 16:46:00,105.2,58.7,29.60,West,271,0.0,0.0,22,0.00,,---,0.00,VWS V14.01,2013-06-30 23:46:00,
2013-06-30 16:51:00,104.8,58.3,29.59,WNW,289,0.0,0.0,22,0.00,,---,0.00,VWS V14.01,2013-06-30 23:51:00,
2013-06-30 16:56:00,105.0,59.7,29.59,NE,39,2.0,0.0,23,0.00,,---,0.00,VWS V14.01,2013-06-30 23:56:00,
2013-06-30 17:01:00,105.3,60.0,29.59,ENE,65,1.0,0.0,23,0.00,,---,0.00,VWS V14.01,2013-07-01 00:01:00,
2013-06-30 17:06:00,105.5,58.9,29.59,NE,42,0.0,0.0,22,0.00,,---,0.00,VWS V14.01,2013-07-01 00:06:00,
2013-06-30 17:11:00,105.7,60.3,29.59,East,85,4.0,0.0,23,0.00,,---,0.00,VWS V14.01,2013-07-01 00:11:00,
2013-06-30 17:16:00,105.8,59.2,29.59,NNE,22,0.0,0.0,22,0.00,,---,0.00,VWS V14.01,2013-07-01 00:16:00,
2013-06-30 17:21:00,105.6,56.3,29.59,ENE,67,3.0,0.0,20,0.00,,---,0.00,VWS V14.01,2013-07-01 00:21:00,
2013-06-30 17:26:00,105.2,56.0,29.59,NE,47,0.0,0.0,20,0.00,,---,0.00,VWS V14.01,2013-07-01 00:26:00,
2013-06-30 17:32:00,104.9,58.4,29.59,NE,36,3.0,0.0,22,0.00,,---,0.00,VWS V14.01,2013-07-01 00:32:00,
2013-06-30 17:37:00,104.9,57.1,29.58,NNW,336,0.0,0.0,21,0.00,,---,0.00,VWS V14.01,2013-07-01 00:37:00,
2013-06-30 17:42:00,104.9,59.7,29.58,NNE,18,0.0,0.0,23,0.00,,---,0.00,VWS V14.01,2013-07-01 00:42:00,
2013-06-30 17:47:00,104.7,57.0,29.58,NE,52,1.0,0.0,21,0.00,,---,0.00,VWS V14.01,2013-07-01 00:47:00,
2013-06-30 17:52:00,104.5,56.8,29.58,NE,35,0.0,0.0,21,0.00,,---,0.00,VWS V14.01,2013-07-01 00:52:00,
2013-06-30 17:57:00,104.2,56.5,29.58,ENE,76,1.0,0.0,21,0.00,,---,0.00,VWS V14.01,2013-07-01 00:57:00,
2013-06-30 18:02:00,104.1,57.8,29.58,NNE,32,0.0,0.0,22,0.00,,---,0.00,VWS V14.01,2013-07-01 01:02:00,
2013-06-30 18:07:00,104.0,57.7,29.58,NE,34,1.0,0.0,22,0.00,,---,0.00,VWS V14.01,2013-07-01 01:07:00,
2013-06-30 18:12:00,104.0,56.4,29.58,NNE,30,0.0,0.0,21,0.00,,---,0.00,VWS V14.01,2013-07-01 01:12:00,
2013-06-30 18:17:00,103.9,53.5,29.58,NE,51,0.0,0.0,19,0.00,,---,0.00,VWS V14.01,2013-07-01 01:17:00,
2013-06-30 18:22:00,103.7,54.8,29.58,NE,37,0.0,0.0,20,0.00,,---,0.00,VWS V14.01,2013-07-01 01:22:00,
2013-06-30 18:27:00,103.5,54.6,29.58,NE,52,3.0,0.0,20,0.00,,---,0.00,VWS V14.01,2013-07-01 01:27:00,
2013-06-30 18:32:00,103.2,53.0,29.58,ENE,63,0.0,0.0,19,0.00,,---,0.00,VWS V14.01,2013-07-01 01:32:00,
2013-06-30 18:38:00,102.9,55.5,29.58,NNE,30,0.0,0.0,21,0.00,,---,0.00,VWS V14.01,2013-07-01 01:38:00,
2013-06-30 18:43:00,102.8,55.4,29.58,NE,51,0.0,0.0,21,0.00,,---,0.00,VWS V14.01,2013-07-01 01:43:00,
2013-06-30 18:48:00,102.6,56.5,29.58,NNE,15,0.0,0.0,22,0.00,,---,0.00,VWS V14.01,2013-07-01 01:48:00,
2013-06-30 18:53:00,102.5,56.4,29.58,NE,52,1.0,0.0,22,0.00,,---,0.00,VWS V14.01,2013-07-01 01:53:00,
2013-06-30 18:58:00,102.2,54.9,29.58,NNW,335,0.0,0.0,21,0.00,,---,0.00,VWS V14.01,2013-07-01 01:58:00,
2013-06-30 19:03:00,101.9,54.7,29.58,NNE,13,0.0,0.0,21,0.00,,---,0.00,VWS V14.01,2013-07-01 02:03:00,
2013-06-30 19:08:00,101.7,59.3,29.58,NNE,24,0.0,0.0,25,0.00,,---,0.00,VWS V14.01,2013-07-01 02:08:00,
2013-06-30 19:13:00,101.4,56.8,29.58,NNE,21,0.0,0.0,23,0.00,,---,0.00,VWS V14.01,2013-07-01 02:13:00,
2013-06-30 19:18:00,101.2,57.8,29.58,NNE,20,0.0,0.0,24,0.00,,---,0.00,VWS V14.01,2013-07-01 02:18:00,
2013-06-30 19:23:00,100.9,56.3,29.58,NNE,21,0.0,0.0,23,0.00,,---,0.00,VWS V14.01,2013-07-01 02:23:00,
2013-06-30 19:28:00,100.6,58.4,29.58,NNE,21,0.0,0.0,25,0.00,,---,0.00,VWS V14.01,2013-07-01 02:28:00,
2013-06-30 19:33:00,100.3,59.2,29.58,NNE,21,0.0,0.0,26,0.00,,---,0.00,VWS V14.01,2013-07-01 02:33:00,
2013-06-30 19:38:00,99.8,58.8,29.58,NNE,21,0.0,0.0,26,0.00,,---,0.00,VWS V14.01,2013-07-01 02:38:00,
2013-06-30 19:44:00,99.4,57.4,29.58,NNE,21,0.0,0.0,25,0.00,,---,0.00,VWS V14.01,2013-07-01 02:44:00,
2013-06-30 19:49:00,99.1,60.3,29.58,NNE,21,0.0,0.0,28,0.00,,---,0.00,VWS V14.01,2013-07-01 02:49:00,
2013-06-30 19:54:00,98.5,60.8,29.58,NNE,21,0.0,0.0,29,0.00,,---,0.00,VWS V14.01,2013-07-01 02:54:00,
2013-06-30 19:59:00,97.9,59.3,29.58,NNE,21,0.0,0.0,28,0.00,,---,0.00,VWS V14.01,2013-07-01 02:59:00,
2013-06-30 20:04:00,97.3,60.7,29.58,NNE,21,0.0,0.0,30,0.00,,---,0.00,VWS V14.01,2013-07-01 03:04:00,
2013-06-30 20:09:00,96.8,61.2,29.58,NNE,21,0.0,0.0,31,0.00,,---,0.00,VWS V14.01,2013-07-01 03:09:00,
2013-06-30 20:14:00,96.3,60.8,29.58,NNE,21,0.0,0.0,31,0.00,,---,0.00,VWS V14.01,2013-07-01 03:14:00,
2013-06-30 20:19:00,95.5,61.0,29.58,NNE,21,0.0,0.0,32,0.00,,---,0.00,VWS V14.01,2013-07-01 03:19:00,
2013-06-30 20:24:00,94.7,61.2,29.58,NNE,21,0.0,0.0,33,0.00,,---,0.00,VWS V14.01,2013-07-01 03:24:00,
2013-06-30 20:29:00,94.2,58.0,29.59,WNW,284,0.0,0.0,30,0.00,,---,0.00,VWS V14.01,2013-07-01 03:29:00,
2013-06-30 20:34:00,93.7,59.4,29.59,WNW,284,0.0,0.0,32,0.00,,---,0.00,VWS V14.01,2013-07-01 03:34:00,
2013-06-30 20:39:00,93.2,60.7,29.59,WNW,284,0.0,0.0,34,0.00,,---,0.00,VWS V14.01,2013-07-01 03:39:00,
2013-06-30 20:44:00,92.8,62.0,29.59,WNW,284,0.0,0.0,36,0.00,,---,0.00,VWS V14.01,2013-07-01 03:44:00,
2013-06-30 20:46:00,92.7,60.2,29.59,WNW,284,0.0,0.0,34,0.00,,---,0.00,VWS V14.01,2013-07-01 03:46:00,
2013-06-30 20:51:00,92.3,61.5,29.59,WNW,284,0.0,0.0,36,0.00,,---,0.00,VWS V14.01,2013-07-01 03:51:00,
2013-06-30 20:56:00,91.9,61.9,29.59,WNW,284,0.0,0.0,37,0.00,,---,0.00,VWS V14.01,2013-07-01 03:56:00,
2013-06-30 21:01:00,91.4,59.9,29.59,SW,219,0.0,0.0,35,0.00,,---,0.00,VWS V14.01,2013-07-01 04:01:00,
2013-06-30 21:02:00,91.3,59.8,29.59,SSE,153,0.0,0.0,35,0.00,,---,0.00,VWS V14.01,2013-07-01 04:02:00,
2013-06-30 21:07:00,90.8,60.2,29.59,SSE,153,0.0,0.0,36,0.00,,---,0.00,VWS V14.01,2013-07-01 04:07:00,
2013-06-30 21:12:00,90.3,59.8,29.59,SSE,153,0.0,0.0,36,0.00,,---,0.00,VWS V14.01,2013-07-01 04:12:00,
2013-06-30 21:17:00,89.8,60.1,29.59,SSE,153,0.0,0.0,37,0.00,,---,0.00,VWS V14.01,2013-07-01 04:17:00,
2013-06-30 21:22:00,89.4,60.5,29.59,SSE,153,0.0,0.0,38,0.00,,---,0.00,VWS V14.01,2013-07-01 04:22:00,
2013-06-30 21:27:00,88.9,60.0,29.60,SSE,153,0.0,0.0,38,0.00,,---,0.00,VWS V14.01,2013-07-01 04:27:00,
2013-06-30 21:32:00,88.4,60.3,29.60,SSE,153,0.0,0.0,39,0.00,,---,0.00,VWS V14.01,2013-07-01 04:32:00,
2013-06-30 21:37:00,88.0,60.7,29.60,SSE,153,0.0,0.0,40,0.00,,---,0.00,VWS V14.01,2013-07-01 04:37:00,
2013-06-30 21:42:00,87.7,61.8,29.60,SSE,153,0.0,0.0,42,0.00,,---,0.00,VWS V14.01,2013-07-01 04:42:00,
2013-06-30 21:47:00,87.5,61.6,29.60,SSE,153,0.0,0.0,42,0.00,,---,0.00,VWS V14.01,2013-07-01 04:47:00,
2013-06-30 21:53:00,87.2,60.7,29.60,SSE,153,0.0,0.0,41,0.00,,---,0.00,VWS V14.01,2013-07-01 04:53:00,
2013-06-30 21:58:00,87.0,59.8,29.61,SSE,153,0.0,0.0,40,0.00,,---,0.00,VWS V14.01,2013-07-01 04:58:00,
2013-06-30 22:03:00,86.7,60.2,29.61,SSE,153,0.0,0.0,41,0.00,,---,0.00,VWS V14.01,2013-07-01 05:03:00,
2013-06-30 22:08:00,86.5,59.3,29.61,SSE,153,0.0,0.0,40,0.00,,---,0.00,VWS V14.01,2013-07-01 05:08:00,
2013-06-30 22:13:00,86.3,59.2,29.61,SSE,153,0.0,0.0,40,0.00,,---,0.00,VWS V14.01,2013-07-01 05:13:00,
2013-06-30 22:18:00,86.0,58.9,29.61,SSE,153,0.0,0.0,40,0.00,,---,0.00,VWS V14.01,2013-07-01 05:18:00,
2013-06-30 22:23:00,85.6,58.5,29.61,SSE,153,0.0,0.0,40,0.00,,---,0.00,VWS V14.01,2013-07-01 05:23:00,
2013-06-30 22:28:00,85.3,58.3,29.61,SSE,153,0.0,0.0,40,0.00,,---,0.00,VWS V14.01,2013-07-01 05:28:00,
2013-06-30 22:33:00,85.1,58.8,29.61,SSE,153,0.0,0.0,41,0.00,,---,0.00,VWS V14.01,2013-07-01 05:33:00,
2013-06-30 22:38:00,84.8,59.2,29.61,SSE,153,0.0,0.0,42,0.00,,---,0.00,VWS V14.01,2013-07-01 05:38:00,
2013-06-30 22:44:00,84.5,58.9,29.61,SSE,153,0.0,0.0,42,0.00,,---,0.00,VWS V14.01,2013-07-01 05:44:00,
2013-06-30 22:49:00,84.3,59.4,29.61,SSE,153,0.0,0.0,43,0.00,,---,0.00,VWS V14.01,2013-07-01 05:49:00,
2013-06-30 22:54:00,84.2,59.3,29.61,SSE,153,0.0,0.0,43,0.00,,---,0.00,VWS V14.01,2013-07-01 05:54:00,
2013-06-30 22:59:00,84.0,59.1,29.61,SSE,153,0.0,0.0,43,0.00,,---,0.00,VWS V14.01,2013-07-01 05:59:00,
2013-06-30 23:04:00,83.8,59.6,29.61,SSE,153,0.0,0.0,44,0.00,,---,0.00,VWS V14.01,2013-07-01 06:04:00,
2013-06-30 23:09:00,83.6,59.4,29.61,SSE,153,0.0,0.0,44,0.00,,---,0.00,VWS V14.01,2013-07-01 06:09:00,
2013-06-30 23:14:00,83.5,59.9,29.61,SSE,153,0.0,0.0,45,0.00,,---,0.00,VWS V14.01,2013-07-01 06:14:00,
2013-06-30 23:19:00,83.5,59.9,29.61,SSE,153,0.0,0.0,45,0.00,,---,0.00,VWS V14.01,2013-07-01 06:19:00,
2013-06-30 23:24:00,83.4,59.2,29.61,SSE,153,0.0,0.0,44,0.00,,---,0.00,VWS V14.01,2013-07-01 06:24:00,
2013-06-30 23:29:00,83.3,59.8,29.61,SSE,153,0.0,0.0,45,0.00,,---,0.00,VWS V14.01,2013-07-01 06:29:00,
2013-06-30 23:34:00,83.1,59.6,29.61,SSE,153,0.0,0.0,45,0.00,,---,0.00,VWS V14.01,2013-07-01 06:34:00,
2013-06-30 23:40:00,83.0,60.1,29.61,SSE,153,0.0,0.0,46,0.00,,---,0.00,VWS V14.01,2013-07-01 06:40:00,
2013-06-30 23:45:00,82.8,59.9,29.61,SSE,153,0.0,0.0,46,0.00,,---,0.00,VWS V14.01,2013-07-01 06:45:00,
2013-06-30 23:50:00,82.7,61.0,29.61,SSE,153,0.0,0.0,48,0.00,,---,0.00,VWS V14.01,2013-07-01 06:50:00,
2013-06-30 23:55:00,82.7,60.4,29.61,WSW,248,0.0,0.0,47,0.00,,---,0.00,VWS V14.01,2013-07-01 06:55:00,